Wind_Speed
4 4 4 4 4 4 4 4 4 3 3 3 2 2 3 3 3 3 3 3 3 4 5 6 6 7 7 8 8 7 7 7 7 7 7 8 8 8 9 9 9 9 9
4 4 5 4 4 4 4 3 3 3 2 2 3 3 4 4 4 4 4 4 4 5 5 6 6 7 7 7 7 8 8 8 8 8 8 8 8 8 8 8 8 8 9
4 4 4 4 4 4 3 3 4 3 3 2 3 3 3 4 5 4 4 4 5 6 6 7 7 7 7 7 7 8 8 9 9 8 8 8 8 8 8 8 8 8 8
4 4 4 5 4 4 3 4 4 4 3 3 4 4 4 5 5 6 6 6 6 7 7 7 8 7 7 7 7 8 8 8 8 9 9 9 9 9 8 8 8 8 8
5 5 4 4 4 4 4 5 5 5 5 5 5 5 6 6 6 7 7 7 7 7 7 7 7 7 7 7 7 7 8 8 8 8 8 9 9 9 9 9 9 9 9
4 5 5 5 5 5 5 5 5 5 6 6 6 6 6 6 7 8 8 8 8 8 8 8 7 7 8 8 7 7 7 7 7 8 8 8 9 9 9 9 9 9 9
5 5 5 6 6 6 6 6 6 6 7 6 7 7 8 8 8 8 8 8 9 9 9 8 7 8 9 9 8 8 7 7 8 7 7 7 8 8 9 9 9 9 9
6 6 6 6 6 6 6 6 7 8 7 7 7 8 8 9 9 9 9 9 9 9 9 9 9 8 8 9 9 9 8 8 8 7 7 8 8 8 9 9 9 9 9
6 7 7 7 7 7 7 8 8 8 9 9 9 9 9 9 9 10 10 10 10 9 9 9 9 9 9 9 9 9 9 9 9 9 8 8 9 9 9 9 9 9 9
7 8 8 8 8 8 9 9 9 9 10 10 11 11 11 11 11 11 10 11 11 10 10 10 10 10 10 9 10 10 10 10 10 10 9 9 9 10 10 10 9 9 9
9 9 9 9 10 10 10 10 10 11 11 11 11 12 11 12 12 12 11 12 12 11 11 11 12 11 11 10 11 11 11 11 11 10 10 10 10 10 11 11 11 10 10
10 10 10 10 10 10 11 11 12 12 12 12 12 12 12 12 12 12 12 13 13 12 12 12 12 12 11 11 11 11 11 11 12 12 12 12 11 11 11 11 11 11 10
10 10 10 10 11 11 11 12 13 13 14 14 14 14 14 13 13 13 13 14 14 13 12 13 13 13 13 12 12 12 12 12 12 13 13 13 12 12 11 11 10 11 11
12 13 13 12 13 14 14 14 14 15 15 15 15 15 15 15 14 14 14 14 14 14 13 13 13 14 13 14 14 14 13 13 13 14 14 14 13 13 13 12 11 11 11
15 15 15 15 15 16 16 16 16 17 16 16 17 16 16 16 16 16 16 15 15 14 13 14 13 14 14 14 15 16 16 15 15 15 15 15 14 14 14 14 14 13 12
16 17 16 17 17 17 17 17 17 17 17 17 18 18 17 16 17 17 16 17 16 16 16 15 15 15 15 15 14 15 15 16 16 16 15 15 15 14 15 15 16 14 14
16 17 18 17 18 18 18 18 18 18 18 18 18 18 18 18 18 18 17 17 17 17 17 16 16 16 16 16 15 15 15 15 15 16 16 15 15 15 15 15 16 15 15
18 18 18 18 18 18 18 18 18 19 19 19 19 19 18 18 18 18 18 18 18 18 18 17 17 17 16 15 15 15 16 15 15 15 15 15 16 16 16 15 16 16 16
18 19 18 18 18 19 19 19 19 20 20 20 19 19 19 18 19 19 19 19 19 19 19 18 18 17 17 16 16 16 16 16 16 16 16 16 17 17 17 17 17 17 18
18 18 17 18 18 19 19 19 20 20 21 20 20 19 19 19 19 19 19 19 19 19 19 19 19 19 18 17 17 17 17 16 16 16 17 17 17 17 18 19 18 18 19
17 17 17 17 18 18 19 19 19 19 19 19 19 19 19 20 20 19 19 19 20 20 20 20 19 20 19 19 19 18 19 18 18 17 17 17 17 18 19 19 19 19 20
18 18 18 18 19 20 20 19 19 19 19 19 19 19 20 20 20 19 20 20 20 20 20 20 20 20 21 21 20 19 19 20 19 19 18 18 18 19 19 20 20 21 21
18 18 19 19 19 19 19 19 19 19 20 20 20 20 21 21 21 20 20 21 22 21 21 21 21 20 20 21 20 20 20 21 20 21 20 20 20 20 20 21 21 22 22
20 20 20 20 20 20 20 20 20 20 21 21 21 21 21 22 22 22 21 22 22 22 22 22 22 21 20 20 21 21 22 22 23 23 23 23 23 23 23 22 23 23 24
22 22 22 22 22 22 22 22 21 22 22 22 22 22 22 23 23 23 22 22 22 22 22 22 22 22 21 22 22 22 23 23 24 24 24 24 24 24 24 25 24 25 25
23 23 23 23 23 24 23 23 23 24 24 24 24 24 23 23 23 23 23 23 23 23 23 23 23 24 24 23 24 23 24 24 24 24 24 25 25 25 25 25 26 27 27
Wind_Direction
318 310 313 318 328 335 340 345 344 336 323 312 323 331 314 302 297 296 292 285 274 273 282 279 276 277 277 270 267 273 276 275 273 273 266 263 265 264 258 257 257 258 258
318 310 310 311 318 326 330 335 337 342 333 317 316 314 317 312 303 301 295 288 288 293 294 289 285 283 281 279 275 274 276 278 277 270 269 266 266 269 266 262 261 262 261
316 312 319 315 315 321 323 326 328 323 317 311 313 308 310 308 307 302 301 297 295 298 301 298 291 289 284 281 275 274 271 273 275 270 269 265 264 268 271 266 265 263 265
311 306 311 312 308 314 315 314 321 314 306 306 306 305 306 304 304 302 297 301 302 302 301 296 296 295 287 281 275 272 271 270 272 270 267 267 265 264 266 266 266 266 265
304 304 309 312 308 302 303 310 312 311 308 307 304 303 303 303 305 308 304 300 302 301 301 301 298 294 289 284 279 277 275 271 271 272 269 268 265 264 266 268 263 265 266
301 305 306 305 308 309 308 305 306 310 315 313 311 310 305 303 307 305 304 303 301 300 302 299 296 294 293 286 282 279 276 272 275 276 271 267 265 264 265 266 263 265 266
293 298 301 301 302 304 306 308 312 313 312 308 309 310 310 309 310 306 303 303 302 302 303 298 293 290 289 284 279 275 272 270 271 274 271 269 267 268 266 267 265 264 263
288 290 292 295 296 295 298 306 309 309 307 307 305 305 307 308 303 303 305 304 305 301 299 296 291 287 286 283 275 272 270 269 268 268 266 269 269 268 268 266 266 264 261
289 289 287 290 290 290 292 298 302 301 302 301 302 305 305 305 302 302 303 304 306 302 292 292 293 289 284 281 274 268 266 265 267 264 262 266 268 268 270 267 266 265 261
288 289 287 285 286 288 289 293 298 301 300 298 299 301 302 302 303 302 300 301 302 300 290 284 286 285 284 279 272 267 264 262 265 264 261 261 263 265 264 265 264 262 262
288 288 283 282 284 287 289 292 298 301 301 299 299 298 298 299 303 302 300 299 299 295 288 285 280 279 280 276 271 267 263 262 263 265 264 262 263 265 263 265 263 259 259
288 284 283 284 284 287 289 293 297 301 301 299 300 298 296 296 300 299 298 298 298 294 288 285 281 281 279 275 272 268 262 261 262 263 264 261 262 266 261 262 260 257 256
288 286 288 289 289 289 291 295 296 296 298 297 297 297 295 295 294 297 296 296 296 293 288 284 282 283 280 275 271 267 265 260 261 263 263 260 260 262 260 257 259 258 257
286 286 287 287 287 289 290 292 294 295 296 295 294 293 291 291 293 295 297 296 294 291 286 284 281 281 278 273 268 264 265 266 264 264 262 259 259 258 256 256 257 258 258
281 285 285 286 285 286 289 290 294 294 294 292 291 291 290 288 288 289 292 294 292 288 284 284 280 278 276 273 268 264 262 263 263 265 263 259 259 257 254 255 255 256 256
283 285 285 287 287 287 288 289 289 291 293 293 289 287 287 288 288 288 289 289 290 287 285 283 280 279 276 272 270 266 263 263 261 264 263 261 259 259 257 254 254 253 253
290 287 292 291 289 287 288 288 289 290 290 292 289 285 284 285 286 287 288 285 285 287 288 283 283 280 277 274 270 268 266 264 261 262 264 261 260 260 259 256 254 254 254
289 291 291 291 288 287 287 286 288 289 289 290 288 286 285 283 285 286 287 285 282 282 282 280 279 279 276 275 271 267 265 263 263 263 261 260 260 262 259 256 255 256 259
289 290 290 288 287 287 288 287 288 287 287 287 287 284 285 283 283 284 284 284 282 280 280 278 273 273 273 273 272 268 265 263 262 264 264 262 263 262 259 258 257 258 261
289 289 289 289 288 288 289 288 287 287 287 286 286 285 284 284 285 284 283 282 282 280 279 278 272 271 271 271 271 269 265 264 263 265 265 264 262 261 260 260 260 259 261
290 291 292 292 293 292 292 293 291 290 289 288 286 284 283 282 283 283 282 282 282 282 281 280 274 268 268 268 267 267 265 263 263 263 264 262 262 261 261 260 259 258 259
292 291 292 292 293 292 292 294 294 292 291 290 288 286 285 282 281 282 281 280 282 283 283 282 280 272 268 266 264 264 265 265 264 262 263 262 263 263 261 260 258 257 259
291 289 291 292 293 292 292 293 294 292 291 290 289 287 286 284 283 283 283 281 280 280 281 281 281 277 271 267 264 262 261 261 264 264 263 264 263 264 263 263 260 260 260
290 289 291 292 292 292 291 290 291 290 289 289 290 288 287 285 283 282 283 282 281 280 279 279 279 277 271 267 265 265 263 264 262 264 266 266 264 264 264 263 262 262 262
286 287 289 290 290 290 290 290 290 289 288 288 289 289 288 286 284 282 282 282 282 280 278 278 278 276 273 269 266 265 264 264 264 264 264 265 264 264 263 264 264 265 266
285 286 286 287 288 289 288 287 287 288 288 288 290 290 289 288 285 283 282 282 281 279 279 278 277 276 274 272 270 267 266 265 265 263 262 263 264 264 264 264 264 265 267
Height
5881 5881 5880 5879 5878 5877 5877 5876 5875 5874 5873 5872 5872 5871 5870 5870 5869 5868 5868 5867 5867 5866 5866 5865 5864 5864 5863 5863 5863 5862 5862 5862 5861 5861 5861 5861 5860 5860 5860 5860 5860 5860 5860
5880 5880 5879 5878 5877 5877 5876 5875 5875 5874 5873 5872 5871 5871 5870 5869 5868 5867 5867 5866 5866 5865 5864 5863 5863 5862 5861 5861 5860 5860 5860 5859 5859 5859 5859 5858 5858 5858 5858 5858 5857 5857 5857
5880 5879 5878 5877 5876 5876 5875 5875 5874 5873 5872 5872 5871 5870 5869 5869 5868 5867 5866 5865 5865 5864 5863 5862 5861 5860 5859 5859 5858 5858 5857 5857 5857 5857 5857 5856 5856 5856 5856 5856 5855 5855 5855
5879 5878 5877 5876 5875 5875 5874 5874 5873 5872 5872 5871 5870 5869 5868 5868 5867 5866 5865 5864 5863 5862 5861 5860 5859 5858 5857 5856 5856 5855 5855 5854 5854 5854 5854 5854 5854 5854 5854 5853 5853 5853 5853
5877 5877 5876 5875 5874 5874 5873 5873 5872 5871 5870 5870 5869 5868 5867 5866 5865 5864 5863 5862 5861 5860 5859 5858 5857 5856 5855 5854 5854 5853 5853 5852 5852 5852 5852 5852 5851 5851 5851 5851 5851 5851 5851
5876 5875 5874 5873 5873 5872 5871 5871 5870 5870 5869 5868 5867 5866 5866 5864 5864 5862 5861 5860 5859 5858 5857 5856 5855 5854 5853 5852 5852 5851 5850 5850 5850 5850 5849 5849 5849 5849 5849 5849 5849 5849 5849
5874 5873 5873 5872 5871 5871 5870 5869 5869 5868 5868 5867 5866 5865 5864 5862 5861 5860 5859 5858 5857 5856 5855 5854 5853 5852 5851 5850 5850 5849 5848 5848 5848 5847 5847 5847 5847 5847 5847 5847 5846 5846 5846
5872 5872 5871 5870 5870 5869 5868 5868 5867 5866 5866 5865 5864 5863 5862 5861 5860 5858 5857 5856 5855 5854 5853 5851 5850 5849 5849 5848 5847 5847 5846 5846 5845 5845 5845 5845 5845 5845 5844 5844 5844 5844 5844
5870 5869 5869 5869 5868 5868 5867 5866 5865 5864 5864 5863 5862 5861 5859 5859 5857 5856 5855 5853 5852 5851 5850 5849 5848 5847 5846 5845 5844 5844 5844 5844 5843 5843 5843 5842 5842 5842 5842 5842 5842 5841 5841
5867 5867 5867 5866 5866 5865 5864 5864 5863 5862 5861 5860 5859 5858 5856 5855 5855 5854 5852 5851 5849 5848 5847 5846 5845 5844 5843 5842 5842 5841 5841 5841 5841 5840 5840 5840 5840 5840 5839 5839 5839 5839 5839
5865 5865 5864 5863 5863 5862 5861 5861 5860 5859 5858 5857 5856 5854 5853 5852 5851 5850 5849 5848 5846 5845 5844 5843 5842 5841 5840 5839 5839 5838 5838 5838 5838 5837 5837 5837 5837 5837 5837 5837 5836 5836 5837
5863 5862 5861 5861 5860 5859 5858 5858 5857 5856 5855 5853 5852 5851 5850 5849 5847 5846 5845 5844 5843 5841 5840 5839 5838 5837 5836 5836 5835 5835 5835 5835 5834 5834 5834 5834 5834 5834 5833 5833 5833 5834 5834
5860 5859 5858 5858 5857 5856 5854 5854 5853 5852 5851 5850 5848 5847 5846 5845 5843 5842 5841 5840 5839 5837 5836 5835 5834 5834 5833 5832 5832 5831 5831 5831 5831 5831 5830 5830 5830 5830 5830 5830 5830 5830 5831
5856 5855 5855 5854 5853 5852 5851 5850 5849 5847 5846 5845 5844 5843 5842 5840 5839 5838 5837 5836 5835 5834 5832 5831 5830 5830 5829 5828 5828 5828 5827 5827 5827 5827 5827 5827 5827 5827 5827 5827 5827 5827 5828
5852 5851 5850 5849 5848 5847 5846 5845 5844 5843 5841 5840 5839 5838 5837 5836 5835 5834 5832 5831 5830 5829 5828 5827 5826 5826 5825 5824 5824 5823 5823 5823 5823 5823 5823 5823 5823 5823 5823 5824 5824 5824 5825
5846 5846 5845 5844 5843 5842 5841 5840 5839 5837 5836 5835 5834 5833 5832 5831 5829 5828 5827 5826 5825 5824 5823 5823 5822 5821 5821 5820 5819 5819 5819 5818 5819 5819 5818 5818 5819 5819 5819 5820 5820 5820 5821
5841 5840 5839 5838 5837 5836 5835 5834 5833 5832 5831 5830 5829 5828 5826 5825 5824 5823 5822 5821 5820 5819 5818 5818 5817 5816 5815 5815 5814 5814 5814 5814 5814 5814 5814 5814 5814 5814 5815 5815 5816 5816 5816
5837 5836 5834 5833 5832 5831 5830 5829 5828 5827 5826 5824 5823 5822 5821 5820 5819 5818 5817 5816 5815 5814 5813 5812 5811 5811 5810 5810 5809 5809 5809 5809 5809 5809 5809 5809 5810 5810 5810 5811 5811 5811 5812
5832 5831 5829 5828 5826 5825 5824 5823 5822 5821 5820 5819 5818 5816 5815 5814 5813 5812 5811 5810 5809 5808 5807 5807 5806 5806 5805 5804 5804 5804 5804 5804 5804 5804 5804 5805 5805 5805 5805 5806 5806 5806 5807
5827 5825 5824 5822 5821 5820 5819 5818 5816 5815 5814 5813 5812 5811 5810 5809 5808 5807 5805 5804 5803 5803 5802 5801 5800 5800 5800 5799 5799 5799 5799 5800 5800 5800 5799 5799 5800 5800 5800 5801 5801 5801 5801
5822 5820 5819 5817 5816 5814 5813 5812 5810 5809 5808 5807 5806 5805 5804 5803 5802 5801 5800 5799 5798 5797 5796 5795 5794 5794 5794 5794 5794 5794 5794 5794 5794 5794 5794 5794 5794 5794 5795 5795 5795 5796 5796
5816 5815 5814 5812 5811 5809 5807 5806 5805 5804 5802 5801 5800 5799 5798 5797 5796 5795 5794 5793 5792 5791 5790 5789 5788 5788 5788 5788 5788 5788 5788 5788 5789 5789 5789 5789 5789 5789 5789 5789 5789 5790 5790
5811 5810 5808 5807 5805 5803 5802 5801 5799 5798 5797 5796 5794 5793 5792 5791 5790 5789 5788 5787 5786 5785 5784 5783 5782 5782 5782 5781 5781 5782 5782 5782 5783 5782 5782 5782 5783 5783 5783 5783 5783 5783 5783
5805 5804 5803 5801 5800 5798 5796 5795 5793 5792 5791 5789 5788 5787 5785 5784 5783 5782 5781 5780 5779 5778 5778 5777 5776 5776 5775 5775 5775 5775 5775 5775 5776 5776 5776 5776 5776 5776 5777 5777 5777 5777 5777
5799 5798 5796 5795 5793 5792 5790 5788 5787 5786 5784 5783 5781 5780 5778 5777 5776 5775 5775 5774 5773 5772 5771 5770 5769 5769 5768 5768 5768 5768 5768 5768 5768 5769 5769 5769 5769 5769 5770 5770 5770 5769 5769
5793 5791 5789 5788 5787 5785 5783 5781 5780 5779 5777 5776 5774 5773 5771 5770 5769 5768 5767 5766 5766 5765 5764 5763 5762 5762 5761 5761 5760 5761 5761 5761 5761 5761 5761 5762 5762 5762 5762 5762 5762 5762 5762